Weather in Solginskiy

Russia / Arkhangel'skaya Oblast'     61°03′04″N   41°20′35″E
temp.,
°C
wind,
m/s
gust,
m/s
humid.,
%
clouds,
%
prec.,
mm/h
press.,
hPa
HPBL,
m
22 april, thu
thu2200:00+2sse51197100 0.1 1007949
03:00+2s41092100 0.6 1008834
06:00+2s41095100 0.1 1008745
09:00+4s51188100 0.1 1008809
12:00+4s51192100 0.3 1009863
15:00+6ssw61285100 0.6 10091122
18:00+5wsw4995100 1.9 1011814
21:00+4ssw279581 1.9 1013244
23 april, fri
fri2300:00+4ssw259736 0.0 1014163
03:00+2sse25965 0.0 101498
06:00+3sse399550 0.0 1015216
09:00+10sse497511 0.0 1014557
12:00+14sse695927 0.0 10131494
15:00+14s6106077 0.8 10121507
18:00+12sse51168100 0.9 1012901
21:00+10sse51479100 1.3 1013607
24 april, sat
sat2400:00+8sse41386100 0.1 1012518
03:00+7se4129286 0.1 1012406
06:00+7se4129172 0.0 1011481
09:00+11se5126762 0.1 10101289
12:00+14se7104512 0.1 10082114
15:00+14se61152100 0.3 10071997
18:00+12se6126114 0.3 10061460
21:00+9ese51269100 0.3 1006996
25 april, sun
sun2500:00+7ese51175100 0.0 1005776
03:00+6e41083100 0.0 1004631
06:00+5e4992100 0.4 10021061
09:00+5e4895100 1.6 1001928
12:00+5e4794100 0.9 1001984
15:00+5ene3694100 1.9 10011019
18:00+5ene3696100 1.4 1001942
21:00+4ene2497100 2.9 1001792
26 april, mon
mon2600:00+4ene2398100 0.9 1000709
03:00+4ene1399100 1.9 1000587
06:00+4w1198100 1.0 100173
09:00+2wsw3598100 1.7 1002384
12:00+1wsw4897100 0.8 1003372
15:00+2wsw41097100 1.7 1004567
18:00+2wsw51097100 0.6 1005817
21:00+1wsw41197100 0.8 1005829